Dewpoint
50 50 50 50 49 50 50 50 50 50 51 51 51 51 53 53 53 49 45 41 49 52 53 51 47 46 45 44 42 39 26 19 18 21 16 26 24 28 28 28 28 29 29 32 48
49 48 49 49 49 49 49 49 50 50 50 51 51 50 51 52 48 44 47 51 55 56 48 47 43 44 40 41 41 32 25 21 22 23 23 27 27 28 28 29 31 31 31 37 54
50 49 49 49 48 48 49 49 49 50 50 50 50 50 50 49 41 26 40 53 55 56 46 44 43 41 39 42 39 35 26 23 26 27 29 28 30 30 28 31 30 32 33 36 49
49 49 48 48 48 48 48 49 49 49 50 50 49 50 49 46 10 35 52 55 55 55 48 45 42 38 35 36 37 36 31 29 29 32 33 32 33 31 32 27 33 35 35 35 43
47 47 47 47 47 47 48 48 49 49 49 49 48 50 45 40 27 33 54 55 50 52 45 44 40 34 31 32 38 36 30 34 33 37 35 37 34 32 34 34 36 37 38 39 38
46 47 47 47 47 47 47 47 48 49 49 49 48 50 41 29 34 42 45 48 48 48 44 41 38 36 30 33 33 34 33 33 36 36 37 35 33 37 32 34 36 37 38 38 39
46 46 46 46 46 46 46 47 47 49 49 49 48 47 39 31 37 39 38 48 48 47 43 42 40 37 36 35 38 35 32 35 35 35 34 37 32 32 32 31 32 33 35 38 39
45 45 45 45 45 45 46 46 48 47 49 50 49 43 37 38 39 38 37 37 51 49 43 44 44 38 37 38 37 33 31 22 21 34 34 32 18 23 28 30 31 32 34 36 37
45 44 44 44 45 45 45 46 46 48 49 48 48 41 35 40 38 40 38 32 48 51 48 43 43 37 40 33 30 33 15 20 18 31 29 30 19 25 32 31 30 31 31 34 36
43 43 43 43 42 44 44 44 45 48 51 45 41 38 38 32 39 39 43 36 47 49 47 43 39 35 35 32 25 20 23 16 20 26 31 31 26 28 33 31 29 29 28 28 30
43 43 41 40 40 43 37 30 23 34 34 36 35 35 38 37 40 37 44 42 40 44 39 41 36 33 31 31 26 17 18 17 21 26 27 25 25 27 29 29 26 27 26 27 27
42 43 39 38 41 39 29 20 21 23 23 26 28 30 31 33 33 35 45 38 39 36 36 35 33 33 30 31 31 26 18 17 24 28 28 22 24 25 27 28 28 29 26 26 28
42 42 41 37 38 31 31 25 28 28 29 23 31 27 27 29 30 28 32 38 34 33 36 32 29 31 30 30 31 29 21 18 19 29 29 27 21 22 23 26 25 24 25 27 29
41 41 41 37 26 32 26 28 29 30 20 19 20 22 25 29 31 31 35 33 34 30 32 34 32 29 32 28 28 25 28 24 25 27 25 25 11 18 21 21 21 19 21 24 29
40 40 34 34 28 23 28 28 28 35 9 12 15 19 21 23 31 28 35 31 31 33 31 28 30 31 29 29 28 28 27 29 29 27 25 23 22 14 20 19 16 15 18 21 27
39 40 32 25 25 24 28 29 36 22 8 11 13 14 8 11 20 24 23 32 30 29 34 33 31 30 32 30 31 32 31 28 29 31 24 22 20 19 17 11 12 12 14 16 21
38 39 27 25 23 27 29 31 22 11 8 7 9 12 5 6 15 18 24 22 20 20 23 30 35 35 32 31 33 32 32 27 24 23 18 26 22 15 9 8 9 11 14 16 17
39 34 27 21 27 28 33 20 7 12 6 7 7 3 2 5 10 16 18 19 20 22 20 18 23 27 30 28 29 34 29 21 12 16 14 21 17 12 6 9 12 12 12 14 14
36 23 23 25 28 30 12 14 12 13 11 7 3 2 1 2 8 18 15 15 16 20 16 13 19 25 28 28 31 34 29 24 15 18 14 22 9 4 8 12 11 10 10 10 11
27 18 22 27 28 19 13 13 14 14 13 7 3 5 1 1 4 13 17 11 11 10 17 20 13 24 25 26 27 27 32 26 26 17 14 18 13 9 11 10 11 10 9 9 9
22 8 21 27 23 14 14 12 12 13 15 9 6 4 5 4 4 7 12 13 10 8 10 18 18 18 21 18 15 18 20 24 27 22 12 11 11 19 13 11 9 8 7 8 9
22 8 23 25 12 11 12 13 16 13 15 13 11 10 10 8 5 4 6 10 14 14 11 15 18 13 16 23 20 19 15 17 21 20 18 12 9 17 17 17 13 9 5 7 9
19 16 22 19 9 8 10 9 12 13 14 13 12 13 14 12 6 7 8 12 14 15 14 13 14 11 13 19 12 12 14 14 18 21 11 15 6 15 14 15 15 10 8 7 8
18 11 16 16 16 15 14 11 8 12 14 12 12 13 12 9 10 10 11 12 16 15 21 14 15 10 3 7 7 7 8 9 12 13 9 9 7 7 9 10 12 8 8 8 8
25 20 21 12 14 11 15 10 8 9 12 13 9 13 14 10 7 7 10 8 10 14 14 12 10 7 9 6 4 4 5 7 7 9 8 8 4 7 10 9 7 8 7 8 7
23 21 21 16 11 12 13 10 9 10 14 9 12 12 12 12 14 10 9 2 -0 4 8 13 11 2 -1 -4 -5 -4 -1 3 5 6 6 4 6 3 6 8 7 7 8 6 8
31 26 23 14 13 12 11 10 9 11 10 12 14 12 11 8 1 1 -0 -0 -0 1 1 11 10 4 -0 -1 -1 -7 -2 1 4 5 2 -1 1 2 3 6 8 9 6 7 10
Lifted_Index
13 13 13 13 13 13 13 13 13 12 12 12 12 11 11 11 10 10 10 10 9 8 7 6 6 7 7 7 7 7 6 5 5 5 5 6 7 8 8 8 9 9 9 8 6
13 13 14 14 14 14 13 13 13 12 12 12 12 12 11 11 10 10 10 9 8 7 6 6 6 7 7 7 7 7 6 5 5 6 6 7 7 7 8 8 8 8 9 8 6
13 13 14 14 14 14 13 13 13 12 12 12 11 11 11 11 10 9 9 8 7 6 6 6 6 7 6 6 7 6 6 5 6 7 7 7 7 7 7 7 7 8 9 8 6
14 14 14 14 14 14 14 14 13 13 12 12 11 11 11 10 9 8 7 6 6 5 5 6 6 6 6 6 6 6 6 6 7 7 7 7 7 7 7 7 7 8 8 8 7
14 14 15 15 15 15 14 14 13 13 12 12 12 12 11 10 9 8 7 5 5 5 5 6 6 6 6 6 6 6 6 6 7 8 8 7 7 7 7 7 7 8 8 8 8
15 15 15 15 15 15 15 14 13 13 12 12 12 12 11 10 10 10 7 5 5 5 5 6 6 6 6 6 7 6 6 6 7 7 7 7 7 7 6 6 7 8 8 8 8
15 15 15 15 15 15 15 14 14 13 12 12 12 12 11 10 11 11 9 6 5 5 5 5 6 6 6 7 7 7 6 6 6 7 7 7 6 6 6 6 6 7 8 8 8
16 16 16 16 15 15 15 15 14 12 11 11 11 12 11 11 12 12 11 8 5 5 5 5 5 6 6 6 6 6 5 5 6 6 6 6 5 5 6 6 6 6 7 8 8
16 16 16 16 16 15 15 15 14 12 11 11 11 11 11 12 12 12 11 9 6 4 5 5 6 6 6 6 5 5 4 4 5 5 5 5 4 5 6 6 6 6 7 7 8
16 16 16 16 16 16 16 15 14 12 10 10 11 11 11 12 11 11 10 9 7 5 5 5 6 6 6 6 5 4 4 4 4 5 5 4 4 5 6 6 6 7 7 8 8
16 16 17 17 17 17 17 17 15 13 12 11 11 11 11 11 11 10 9 8 7 6 5 6 6 6 6 6 5 5 4 4 5 5 5 4 4 6 7 7 7 7 8 8 8
17 17 18 18 18 18 18 18 17 15 13 12 12 12 11 11 11 10 8 7 7 6 6 6 6 6 6 6 6 5 5 5 6 6 6 5 5 6 7 8 8 8 9 9 9
18 18 18 19 19 19 18 18 18 15 12 12 12 12 12 12 11 10 9 7 6 6 6 5 6 6 6 6 6 6 5 5 6 6 6 5 5 6 7 8 8 9 9 9 9
18 18 19 19 19 18 18 17 16 13 10 10 12 12 12 11 10 10 9 8 6 6 5 5 6 6 6 6 6 6 5 6 6 6 6 5 5 6 7 8 9 10 10 10 10
19 19 19 19 19 18 16 15 13 9 7 9 11 12 11 10 10 9 9 8 6 5 5 5 5 5 5 6 5 5 5 5 5 5 5 5 5 6 8 9 9 10 10 10 10
18 18 19 19 18 16 14 12 10 7 6 8 10 10 10 9 8 8 7 6 5 5 4 4 4 5 5 5 4 4 4 4 4 4 4 5 6 6 8 9 10 10 9 9 9
17 17 18 17 15 13 11 9 7 6 7 7 8 8 8 7 7 6 5 4 4 3 3 3 3 3 4 4 3 3 4 3 2 2 3 5 6 7 8 9 10 10 9 9 9
17 17 16 15 13 10 8 7 6 6 6 6 6 6 6 6 5 4 4 3 3 3 2 2 2 2 3 3 2 2 3 2 1 1 3 5 6 8 9 10 10 10 10 10 10
16 15 14 13 11 8 7 6 5 5 4 4 4 4 4 4 4 4 3 4 5 4 3 2 2 3 3 2 2 1 1 2 1 1 2 4 6 8 9 10 10 10 10 10 10
15 14 13 11 9 7 5 4 4 3 3 3 3 3 3 3 3 3 3 4 5 6 5 4 3 3 3 2 1 1 0 1 1 1 1 2 5 7 9 9 10 10 10 11 11
14 13 12 10 7 6 5 4 3 3 2 2 2 2 2 2 2 2 3 4 5 6 6 5 4 3 3 3 3 2 1 0 0 0 0 1 5 8 10 10 10 10 12 13 13
13 12 10 8 5 5 5 4 3 2 2 2 1 1 1 1 1 1 2 3 3 4 5 5 4 3 4 6 6 4 2 1 1 0 0 1 5 10 12 11 11 11 12 14 14
13 11 9 7 5 5 5 4 3 3 2 2 1 1 1 1 1 1 1 1 2 3 4 4 4 3 4 6 7 6 4 2 1 1 0 1 4 9 12 12 11 11 12 13 14
12 10 8 6 6 5 5 5 4 3 3 2 2 1 1 1 1 1 1 1 1 2 3 3 4 3 4 5 7 6 6 4 2 1 1 1 4 8 11 11 11 11 11 11 11
11 10 7 6 6 6 5 5 4 4 3 3 2 1 1 1 1 1 1 1 1 2 2 3 4 4 5 6 7 7 7 6 4 3 3 4 6 9 11 11 11 11 11 10 10
12 10 8 6 6 6 5 5 4 4 4 3 2 2 1 1 1 1 1 1 1 1 2 2 3 4 5 6 7 6 7 7 7 6 6 7 8 11 12 12 12 12 11 11 10
12 10 8 7 6 6 5 5 4 4 4 4 3 2 1 1 2 2 2 2 2 1 1 2 3 4 4 5 6 6 7 8 8 8 8 8 10 12 12 12 12 12 12 11 11